Date String (YYYY-MM-DD hh:mm:ss) UTC,Instrument flags,Ambient pressure (hPa),Sample flow (lpm),Bypass flow (lpm),Sample temperature (°C),Ambient temperature (°C),ASC tube jacket temperature (°C),LED temperature (°C),Box temperature (°C),Sample RH (%),Span deviation,Mass concentration (μg/m³),Mass concentration (μg/m³),Mass concentration (μg/m³)
DateTimeUTC,F1_M11,P_M11,Q1_M11,Q2_M11,T1_M11,T2_M11,T3_M11,T4_M11,T5_M11,U1_M11,ZSPAN_M11,X2_M11,X0_M11,X1_M11
2023-03-09 20:00:00,,0824.9,5.01,0.00,22.2,20.9,00.0,31.0,24.0,06.0,0000.0,0001.16,0003.95,0000.72
2023-03-09 20:01:00,,0824.9,4.99,0.00,22.2,20.9,00.0,31.0,24.0,06.0,0000.0,0001.12,0004.93,0000.73
2023-03-09 20:02:00,,0824.9,4.99,0.00,22.2,20.9,00.0,31.0,24.0,06.2,0000.0,0001.09,0005.10,0000.73
2023-03-09 20:03:00,,0824.9,5.00,0.00,22.2,20.9,00.0,31.0,24.0,06.2,0000.0,0001.07,0005.04,0000.74
2023-03-09 20:04:00,,0824.8,5.00,0.00,22.2,20.9,00.0,31.0,24.0,06.1,0000.0,0001.05,0004.73,0000.74
2023-03-09 20:05:00,,0824.6,5.00,0.00,22.2,20.9,00.0,31.0,24.0,06.0,0000.0,0001.08,0004.77,0000.74
2023-03-09 20:06:00,,0824.6,5.01,0.00,22.2,20.9,00.0,31.0,24.1,06.0,0000.0,0001.09,0005.10,0000.74
2023-03-09 20:07:00,,0824.9,5.00,0.00,22.2,20.9,00.0,31.0,24.1,05.9,0000.0,0001.09,0004.80,0000.74
2023-03-09 20:08:00,,0824.9,4.99,0.00,22.2,20.9,00.0,31.0,24.0,05.9,0000.0,0001.06,0004.16,0000.73
2023-03-09 20:09:00,,0824.9,5.00,0.00,22.2,20.9,00.0,31.0,23.9,05.9,0000.0,0001.07,0004.13,0000.73
2023-03-09 20:10:00,,0824.9,5.00,0.00,22.2,20.9,00.0,31.0,23.8,05.9,0000.0,0001.07,0004.05,0000.72
2023-03-09 20:11:00,,0824.9,4.98,0.00,22.2,20.9,00.0,31.0,23.9,06.0,0000.0,0001.05,0003.83,0000.72
2023-03-09 20:12:00,,0824.8,4.99,0.00,22.2,20.9,00.0,31.0,23.9,05.9,0000.0,0001.04,0002.82,0000.71
2023-03-09 20:13:00,,0824.8,5.02,0.00,22.2,20.9,00.0,31.0,24.0,06.1,0000.0,0001.04,0003.14,0000.70
2023-03-09 20:14:00,,0824.7,4.99,0.00,22.2,20.9,00.0,31.0,24.0,06.1,0000.0,0001.05,0003.21,0000.70
2023-03-09 20:15:00,,0824.6,4.99,0.00,22.2,20.9,00.0,31.0,24.0,06.0,0000.0,0001.05,0003.25,0000.70
2023-03-09 20:16:00,,0824.7,5.01,0.00,22.2,20.9,00.0,31.0,23.9,06.1,0000.0,0001.07,0004.11,0000.69
2023-03-09 20:17:00,,0824.7,5.01,0.00,22.2,20.8,00.0,31.0,23.9,06.0,0000.0,0001.07,0003.78,0000.69
2023-03-09 20:18:00,,0824.6,5.01,0.00,22.2,20.9,00.0,31.0,24.0,06.0,0000.0,0001.04,0003.71,0000.69
2023-03-09 20:19:00,,0824.5,5.00,0.00,22.2,20.9,00.0,30.9,24.0,06.1,0000.0,0001.01,0003.64,0000.69
2023-03-09 20:20:00,,0824.4,4.99,0.00,22.2,20.8,00.0,30.9,24.0,05.9,0000.0,0001.01,0003.60,0000.69
2023-03-09 20:21:00,,0824.4,5.00,0.00,22.2,20.8,00.0,30.9,24.0,05.8,0000.0,0001.05,0003.77,0000.69
2023-03-09 20:22:00,,0824.6,5.00,0.00,22.2,20.9,00.0,30.9,24.0,05.8,0000.0,0001.06,0003.76,0000.68
2023-03-09 20:23:00,,0824.6,5.00,0.00,22.2,20.8,00.0,30.9,23.9,05.8,0000.0,0001.06,0003.65,0000.68
2023-03-09 20:24:00,,0824.6,5.00,0.00,22.2,20.8,00.0,30.9,24.0,06.0,0000.0,0001.05,0003.08,0000.68
2023-03-09 20:25:00,,0824.5,4.99,0.00,22.2,20.8,00.0,30.9,24.0,06.0,0000.0,0001.05,0003.11,0000.67
2023-03-09 20:26:00,,0824.5,4.99,0.00,22.2,20.8,00.0,30.9,24.0,06.1,0000.0,0001.06,0003.13,0000.67
2023-03-09 20:27:00,,0824.7,5.00,0.00,22.2,20.8,00.0,30.9,24.0,05.8,0000.0,0001.06,0002.52,0000.66
2023-03-09 20:28:00,,0824.6,5.00,0.00,22.2,20.8,00.0,30.9,23.9,05.5,0000.0,0001.03,0002.07,0000.65
2023-03-09 20:29:00,,0824.5,5.01,0.00,22.2,20.8,00.0,30.9,23.9,05.7,0000.0,0001.02,0002.18,0000.64
2023-03-09 20:30:00,,0824.5,5.01,0.00,22.2,20.8,00.0,30.9,24.0,06.1,0000.0,0001.00,0002.23,0000.64
2023-03-09 20:31:00,,0824.7,5.01,0.00,22.2,20.9,00.0,30.9,24.0,05.8,0000.0,0001.04,0002.39,0000.63
2023-03-09 20:32:00,,0824.7,5.00,0.00,22.2,20.9,00.0,30.9,24.0,05.9,0000.0,0001.02,0002.57,0000.62
2023-03-09 20:33:00,,0824.8,4.99,0.00,22.2,20.9,00.0,30.9,24.0,05.9,0000.0,0001.04,0003.50,0000.63
2023-03-09 20:34:00,,0824.9,5.01,0.00,22.2,20.9,00.0,30.9,24.0,05.9,0000.0,0001.08,0003.58,0000.63
2023-03-09 20:35:00,,0824.8,5.00,0.00,22.1,20.9,00.0,30.9,23.9,05.9,0000.0,0001.08,0003.59,0000.63
2023-03-09 20:36:00,,0824.6,5.01,0.00,22.1,20.9,00.0,30.9,23.9,05.9,0000.0,0001.07,0003.54,0000.63
2023-03-09 20:37:00,,0824.6,5.00,0.00,22.1,20.9,00.0,30.9,23.9,06.0,0000.0,0001.07,0003.60,0000.62
2023-03-09 20:38:00,,0824.7,5.00,0.00,22.1,20.9,00.0,30.9,23.9,06.1,0000.0,0001.06,0003.59,0000.62
2023-03-09 20:39:00,,0824.8,4.99,0.00,22.1,20.9,00.0,30.9,24.0,06.1,0000.0,0001.09,0003.93,0000.62
2023-03-09 20:40:00,,0824.5,4.99,0.00,22.1,20.9,00.0,30.9,24.0,05.9,0000.0,0001.14,0004.72,0000.63
2023-03-09 20:41:00,,0824.8,5.00,0.00,22.2,20.9,00.0,30.9,24.0,06.0,0000.0,0001.18,0004.78,0000.63
2023-03-09 20:42:00,,0824.6,4.99,0.00,22.2,20.9,00.0,30.9,24.0,06.0,0000.0,0001.17,0004.74,0000.64
2023-03-09 20:43:00,,0824.6,5.00,0.00,22.2,20.9,00.0,30.9,24.0,06.0,0000.0,0001.15,0005.21,0000.64
2023-03-09 20:44:00,,0824.7,5.00,0.00,22.2,21.0,00.0,30.9,24.0,05.9,0000.0,0001.16,0004.36,0000.65
2023-03-09 20:45:00,,0824.6,5.00,0.00,22.2,21.0,00.0,30.9,24.0,06.0,0000.0,0001.21,0005.13,0000.66
2023-03-09 20:46:00,,0824.7,4.99,0.00,22.2,21.0,00.0,30.9,24.1,06.2,0000.0,0001.32,0006.45,0000.67
2023-03-09 20:47:00,,0824.6,5.00,0.00,22.2,21.1,00.0,30.9,24.1,05.9,0000.0,0001.32,0006.43,0000.67
2023-03-09 20:48:00,,0824.5,5.01,0.00,22.2,21.1,00.0,30.9,24.1,05.9,0000.0,0001.28,0006.23,0000.67
2023-03-09 20:49:00,,0824.4,5.01,0.00,22.3,21.1,00.0,30.9,24.1,05.7,0000.0,0001.23,0006.00,0000.66
2023-03-09 20:50:00,,0824.3,5.00,0.00,22.3,21.1,00.0,30.9,24.1,05.5,0000.0,0001.20,0005.73,0000.65
2023-03-09 20:51:00,,0824.4,5.00,0.00,22.3,21.2,00.0,30.9,24.1,05.4,0000.0,0001.19,0005.07,0000.64
2023-03-09 20:52:00,,0824.4,5.00,0.00,22.3,21.2,00.0,30.9,24.2,05.4,0000.0,0001.21,0005.12,0000.63
2023-03-09 20:53:00,,0824.4,5.00,0.00,22.3,21.2,00.0,30.9,24.2,05.4,0000.0,0001.22,0005.22,0000.62
2023-03-09 20:54:00,,0824.4,4.99,0.00,22.3,21.2,00.0,30.9,24.2,05.4,0000.0,0001.21,0004.58,0000.61
2023-03-09 20:55:00,,0824.5,4.99,0.00,22.4,21.3,00.0,31.0,24.3,05.6,0000.0,0001.17,0004.34,0000.60
2023-03-09 20:56:00,,0824.4,5.00,0.00,22.4,21.3,00.0,31.0,24.3,05.6,0000.0,0001.11,0003.88,0000.58
2023-03-09 20:57:00,,0824.4,5.00,0.00,22.4,21.3,00.0,31.0,24.3,05.6,0000.0,0000.97,0002.19,0000.57
2023-03-09 20:58:00,,0824.4,5.00,0.00,22.4,21.3,00.0,31.0,24.3,05.6,0000.0,0000.94,0002.10,0000.56
2023-03-09 20:59:00,,0824.6,5.01,0.00,22.4,21.3,00.0,31.0,24.3,05.8,0000.0,0000.95,0002.26,0000.55
